Location: Gransden
(52.1833°N, 0.1333°W)
Time: 10:06:40
(UTC+00:00)

Daily predictions for brighter satellites

Satellite Brightness Start Highest point End
(mag) Time Altitude Azimuth Time Altitude Azimuth Time Altitude Azimuth
Cosmos 1570 Rocket 4.1 21:00:43 10° SSW 21:06:03 87° ESE 21:11:26 10° NNE
Meteor 2-10 Rocket 4.0 21:01:27 10° NNW 21:07:17 77° W 21:13:01 10° S
USA 245 2.9 21:04:08 10° SSE 21:07:50 73° ENE 21:10:52 10° N
Cosmos 1844 Rocket 2.7 21:02:38 10° SSW 21:08:06 62° ESE 21:13:36 10° NE
SL-14 R/B 3.3 21:07:49 10° S 21:11:28 55° E 21:15:07 10° NNE
Cosmos 1238 Rocket 3.8 21:08:08 10° SSW 21:12:58 64° WNW 21:17:40 10° N
CZ-4C R/B 3.6 21:06:41 10° NW 21:13:19 49° SW 21:21:28 10° SSE
Cosmos 1833 Rocket 3.7 21:11:24 10° NNW 21:16:43 40° NE 21:22:00 10° ESE
Cosmos 1151 Rocket 3.7 21:15:14 10° SSE 21:19:15 39° E 21:23:18 10° NNE
Cosmos 2082 Rocket 4.5 21:17:30 10° NNW 21:21:16 18° NNE 21:25:00 10° ENE
Cosmos 1066 Rocket 4.5 21:18:58 10° SSW 21:24:40 81° WNW 21:30:33 10° NNE
SL-08 R/B 4.1 21:20:37 10° N 21:25:06 53° WNW 21:29:32 10° SW
CZ-2C R/B 2.7 21:23:48 10° SE 21:26:18 38° ENE 21:28:54 10° N
Cosmos 1953 3.6 21:23:35 10° NNE 21:26:30 23° ENE 21:29:24 10° ESE
Meteor 2-4 Rocket 4.4 21:21:04 10° SSW 21:26:45 60° WNW 21:32:37 10° N
SL-24 R/B - RUBIN 2 3.5 21:23:58 10° SSW 21:28:27 69° SE 21:32:47 10° NE
Cosmos 1844 3.8 21:23:27 10° SSW 21:29:14 79° ESE 21:35:04 10° NNE
CZ-4B R/B 3.6 21:25:12 10° SSE 21:30:17 90° NE 21:35:31 10° NNW
Okean O Rocket 3.0 21:26:54 10° SSW 21:30:52 34° W 21:34:54 10° NNW
NOSS 2-2 (E) 3.8 21:30:24 10° WSW 21:33:31 47° NW 21:36:26 10° NE
In-Cosmos 22 4.3 21:30:31 10° S 21:36:16 82° E 21:42:03 10° NNE
NOSS 3-2 (C) 3.9 21:33:22 10° S 21:37:47 31° ESE 21:42:54 10° ENE
Cosmos 1461 3.3 21:38:51 10° NW 21:42:09 38° WSW 21:45:06 12° SSE
USA 186 3.8 21:42:52 10° SW 21:44:14 14° W 21:45:34 10° WNW
Cosmos 1745 Rocket 4.4 21:39:13 10° N 21:45:20 53° ENE 21:51:04 12° SSE
CZ-4B R/B 3.5 21:43:01 10° S 21:46:45 49° W 21:50:38 10° NNW
Sich 1 4.1 21:48:37 10° NNW 21:52:38 41° W 21:56:39 10° SSW
Cosmos 1500 Rocket 3.6 21:48:20 10° NNW 21:52:42 77° W 21:56:48 11° S
Helios 1A 4.2 21:51:45 10° NE 21:54:59 24° E 21:57:27 14° SE
Cosmos 2344 4.3 21:49:43 10° S 21:56:13 29° ESE 22:02:11 10° ENE
GP-B 3.1 21:52:52 10° N 21:57:16 79° E 22:01:23 12° S
Cosmos 1607 4.3 21:53:37 10° NW 21:59:55 63° SW 22:05:32 14° SSE
Iridium 4 Rocket 3.6 21:55:05 11° S 22:00:15 66° E 22:05:14 10° N
Helios 1B rocket 3.7 21:57:41 10° ESE 22:00:26 23° ENE 22:03:14 10° N
ARIANE 5 R/B 4.3 21:59:33 10° ESE 22:03:08 24° ENE 22:06:42 10° N
Cosmos 2285 Rocket 4.4 22:01:01 10° NNW 22:07:17 61° WSW 22:13:01 12° S
Cosmos 1420 Rocket 4.5 22:03:33 10° NNW 22:08:42 53° ENE 22:13:10 13° SE
NOSS 2-3 (D) 3.7 22:07:17 10° SSW 22:10:43 37° SE 22:14:16 10° ENE
ALOS 2 4.2 22:11:58 10° ESE 22:15:36 26° ENE 22:19:15 10° N
Cosmos 1538 Rocket 4.2 22:11:36 11° S 22:16:20 52° ESE 22:21:25 10° NNE
Cosmos 2315 Rocket 4.5 22:13:37 14° SSE 22:18:39 47° E 22:24:33 10° NNE
CENTAUR R/B 3.9 22:13:28 10° W 22:19:23 47° NNW 22:26:51 10° NE
Cosmos 1943 Rocket 3.6 22:16:33 14° SE 22:19:36 22° ESE 22:23:47 10° NE
Iridium 45 4.1 22:18:34 19° S 22:20:38 75° E 22:23:44 10° N
Cosmos 1328 Rocket 3.8 22:24:40 17° SSE 22:27:48 53° E 22:32:02 10° NNE
Ariane Rocket 4.4 22:24:57 10° SSW 22:29:23 30° W 22:33:52 10° NNW
Lacrosse 5 rocket 2.3 22:30:44 20° SE 22:31:04 20° SE 22:33:42 10° E
Cosmos 1666 Rocket 3.5 22:30:02 10° N 22:34:25 89° W 22:37:29 19° S
CZ-2C R/B 4.4 22:32:46 10° ESE 22:36:44 23° ENE 22:40:47 10° N
NOSS 2-3 (E) 3.1 22:34:36 10° SW 22:38:13 66° SE 22:42:05 10° NE
Cosmos 1703 3.6 22:37:13 12° SSW 22:40:02 44° WNW 22:43:07 10° N
USA 215 3.6 22:37:29 16° SSE 22:42:35 50° SW 22:48:56 10° WNW
NOSS 3-2 (A) 4.0 22:41:35 10° WSW 22:46:47 56° NNW 22:53:10 10° NE
GEOS 3 Rocket 3.7 22:45:16 16° SE 22:49:40 81° SW 22:55:06 10° NW
Timation 1 Rocket 4.4 22:44:17 10° NW 22:50:17 79° WSW 22:54:45 18° SSE
Cosmos 1844 Rocket 4.5 22:47:22 10° WSW 22:52:21 32° NW 22:57:21 10° NNE
S3M 4.0 22:48:41 14° S 22:54:04 84° W 23:00:16 10° N
Cosmos 1515 Rocket 4.1 22:55:38 21° SSE 22:58:10 45° E 23:02:19 10° NNE
ARGOS Delta rocket 4.2 22:53:08 10° NNE 22:58:33 68° E 23:02:18 19° S
CSL-04 DEB 4.2 22:57:32 23° SSE 22:59:42 74° ENE 23:03:23 10° NNW
Cosmos 1833 Rocket 3.2 22:55:21 10° NW 23:00:46 48° WSW 23:04:36 19° S
USA 59 Rocket 1.1 23:01:29 17° ESE 23:01:29 17° ESE 23:03:31 10° E
Cosmos 1953 3.4 22:58:14 10° NNW 23:01:27 31° W 23:03:47 16° SSW
Spot 4 3.9 22:59:30 20° SSE 23:02:49 78° ENE 23:07:40 10° NNW
Cosmos 1709 Rocket 4.3 22:58:13 10° NNW 23:04:28 63° W 23:09:28 17° S
Meteor 1-16 Rocket 4.2 22:59:11 10° NNW 23:04:41 78° W 23:08:42 20° S
Cosmos 2082 Rocket 2.8 23:01:08 10° NNW 23:06:40 53° NE 23:11:52 12° SE
Okean 3 4.1 23:09:18 22° SSE 23:11:18 38° E 23:15:02 10° NNE
Cosmos 1633 Rocket 3.7 23:07:58 10° NNW 23:12:10 47° W 23:15:02 19° SSW
Meteor 1-23 Rocket 4.2 23:07:56 17° SSW 23:12:17 89° WNW 23:17:53 10° NNE
Cosmos 2278 Rocket 2.8 23:09:54 20° SSE 23:13:15 40° ESE 23:18:30 10° NE
Cosmos 1400 Rocket 2.5 23:19:53 10° N 23:23:37 80° ENE 23:25:30 27° SSE
Cosmos 1624 Rocket 4.0 23:18:24 10° NNW 23:23:43 79° WSW 23:27:15 22° SSE
COSMOS 2406 4.4 23:19:29 10° NNW 23:24:51 40° NE 23:30:10 10° ESE
Cosmos 1680 Rocket 3.5 23:22:43 21° S 23:26:12 66° ESE 23:31:22 10° NNE
CZ-2C R/B 3.8 23:21:01 10° NNE 23:26:22 43° E 23:29:38 21° SSE
Cosmos 494 Rocket 4.2 23:24:38 22° S 23:27:58 58° ESE 23:33:08 10° NNE
NOSS 3-2 (C) 3.7 23:22:52 10° WSW 23:28:05 65° NW 23:34:30 10° NE
Helios 1A 4.0 23:26:06 10° N 23:29:47 39° WNW 23:33:09 12° SW
Meteor 1-12 Rocket 4.4 23:24:12 10° NNW 23:29:50 70° W 23:33:43 21° S
Cosmos 2056 Rocket 3.5 23:25:22 10° NNW 23:30:28 68° WSW 23:33:39 23° S
Helios 1B rocket 3.1 23:31:35 21° SSW 23:33:13 33° W 23:36:24 10° NNW
NOSS 2-3 (C) 3.4 23:29:53 10° WSW 23:33:17 65° NW 23:37:03 10° NE
Cosmos 1812 1.8 23:34:10 10° N 23:35:32 42° NNE 23:35:32 42° NNE
ARIANE 5 R/B 3.1 23:36:34 23° SSW 23:39:09 52° W 23:43:31 10° NNW
ACS3 Solar Sail 2.8 23:34:24 10° NNE 23:39:24 30° E 23:43:11 16° SE
Lacrosse 4 Rocket 4.3 23:38:13 10° NNW 23:40:47 15° NNE 23:43:21 10° ENE
USA 238 DEB 3.6 23:36:16 17° SSW 23:40:56 59° SE 23:47:36 10° NE
USA 238 3.6 23:36:31 18° SSW 23:41:09 58° SE 23:47:48 10° NE
Okean 2 3.8 23:42:04 20° SW 23:44:30 50° WNW 23:48:16 10° N
BREEZE-M DEB (TANK) 3.5 23:34:19 10° W 23:48:46 74° S 23:53:01 10° ESE
Cosmos 1933 Rocket 3.7 23:47:15 10° NNW 23:51:31 60° W 23:53:53 25° SSW
ALOS 2 3.2 23:49:18 23° SSW 23:51:44 45° W 23:55:59 10° NNW
Cosmos 1441 Rocket 2.7 23:54:17 33° S 23:55:36 80° ESE 23:58:50 10° NNE
